Wind_Speed
84 88 91 98 102 107 110 112 109 102 108 107 96 81 75 75 78 76 71 66 58 56 50 47 43 43 43 40 40 41 42 41 37 33 30 30 21 27 19 17 21 21 27 34
80 82 87 92 101 104 107 108 109 108 114 107 86 76 77 76 78 78 73 69 63 60 54 49 47 49 47 41 42 43 42 41 39 35 32 27 31 25 25 22 23 24 23 28
76 78 83 86 96 103 106 106 112 118 114 98 90 82 74 74 74 73 70 69 65 63 56 53 50 48 49 44 41 43 44 44 39 37 34 30 32 30 27 27 24 25 28 28
71 74 77 83 92 100 106 102 108 108 104 97 88 86 79 77 75 71 70 69 64 61 57 54 52 51 48 48 45 46 46 43 38 37 36 35 34 35 26 30 27 26 30 29
67 68 72 79 86 97 104 98 95 99 97 96 91 88 81 76 76 69 64 59 57 57 54 54 54 54 52 51 49 48 47 41 37 38 37 36 34 36 34 30 32 29 27 30
64 66 70 76 85 90 89 88 88 93 93 97 96 86 81 79 78 69 62 61 63 57 54 56 57 56 54 52 49 48 45 40 40 38 41 36 38 41 35 31 28 30 29 34
62 64 68 74 74 77 84 89 85 89 84 91 90 89 88 84 81 75 72 70 65 60 62 62 58 56 54 51 48 44 41 40 40 41 43 40 44 45 39 38 31 34 34 37
59 62 64 67 69 74 80 82 77 84 85 91 97 91 90 87 88 83 80 77 73 71 67 62 57 53 50 46 45 45 43 43 43 43 42 43 44 47 45 41 38 34 42 40
57 61 63 64 63 72 74 72 73 80 83 82 97 96 92 87 86 86 81 82 78 73 68 63 56 52 50 47 50 50 46 46 48 45 45 43 44 47 49 43 40 43 40 41
55 58 60 58 61 68 66 67 70 76 74 86 94 94 91 91 90 83 84 83 81 76 71 64 58 56 55 53 50 52 48 47 48 47 47 43 45 49 51 48 44 43 41 43
52 54 54 55 58 59 56 60 68 74 73 78 85 95 94 91 91 86 84 88 83 77 73 68 65 61 61 58 55 54 49 50 50 49 51 48 48 50 50 53 50 45 40 44
49 49 50 51 50 50 53 60 70 69 72 78 84 88 93 90 91 94 91 86 84 78 74 70 68 67 67 63 60 55 50 53 57 56 51 49 47 52 52 55 50 49 43 43
45 46 47 45 47 49 55 61 64 66 75 80 83 84 90 93 93 91 87 82 80 78 75 73 72 73 69 63 59 57 54 56 59 60 54 49 48 53 55 57 52 50 47 46
42 44 44 45 46 52 55 59 64 68 71 76 83 86 87 89 89 86 83 82 78 75 72 69 67 65 67 64 60 58 56 58 60 58 51 51 51 54 56 58 55 53 51 53
40 42 42 43 48 53 59 66 71 75 75 77 84 84 86 85 85 82 81 78 75 71 66 64 62 61 59 58 58 53 54 57 60 53 53 52 54 55 58 60 58 53 52 53
39 41 44 45 50 55 60 67 70 70 73 76 82 82 83 82 82 80 78 75 73 69 67 64 63 60 59 56 51 55 57 58 59 57 56 56 57 60 63 65 62 60 56 53
40 43 46 49 51 54 55 56 61 63 67 71 75 81 81 79 77 73 70 70 70 67 64 62 61 59 56 48 51 55 58 60 61 56 58 58 62 68 66 60 64 68 63 62
43 46 49 53 57 58 62 65 65 66 69 72 75 77 78 77 73 70 68 66 66 66 62 58 57 55 55 58 59 60 64 65 64 58 58 60 66 70 66 66 68 69 68 68
46 49 51 54 56 58 63 65 67 67 63 65 66 69 72 72 70 68 65 63 63 61 60 58 58 56 51 54 59 64 66 60 59 60 59 62 68 68 69 68 67 65 68 70
44 45 47 51 57 60 61 61 61 64 63 57 56 57 65 66 66 64 62 60 59 59 60 62 61 52 55 60 62 66 64 62 55 56 62 64 68 70 68 67 67 72 76 75
50 52 54 56 58 60 60 57 53 52 53 55 57 59 60 60 60 58 56 55 56 58 58 59 58 57 62 62 64 65 63 62 63 66 67 69 72 74 74 77 80 82 84 87
45 50 51 53 55 55 57 57 57 55 54 53 51 54 54 56 55 53 55 55 58 61 62 62 57 59 62 62 64 63 64 66 67 68 70 72 76 80 81 84 87 87 87 86
44 46 47 46 45 47 50 51 53 51 49 49 50 49 48 45 40 39 51 55 60 65 64 59 61 64 65 64 64 63 63 67 69 70 72 74 75 78 78 79 78 76 75 75
53 52 51 49 51 49 47 50 52 55 56 55 53 53 48 49 49 56 56 58 58 60 60 62 64 64 64 65 66 67 69 69 72 74 74 75 77 79 76 76 71 71 71 72
45 48 50 48 48 50 50 52 54 56 56 56 58 60 64 66 63 66 56 55 59 64 64 63 63 63 65 67 69 67 68 74 75 76 76 79 79 73 69 70 70 71 72 73
42 42 44 48 50 51 53 53 53 53 52 52 56 62 64 67 64 62 62 60 56 52 55 58 61 64 63 64 67 71 73 74 76 75 78 82 78 77 75 73 72 73 75 76
39 41 42 46 48 49 47 47 48 44 48 48 50 51 56 57 60 61 59 56 52 52 53 53 56 60 64 66 67 65 65 68 71 75 78 77 76 76 76 78 79 79 80 82
Wind_Direction
235 232 229 227 226 226 225 227 228 228 229 232 231 230 231 235 242 241 244 246 249 253 254 255 263 269 272 279 283 288 298 307 311 319 322 325 296 263 263 267 262 270 271 267
235 231 229 226 226 226 226 226 227 226 229 229 227 227 229 233 240 240 241 244 248 251 254 258 260 264 269 277 281 285 294 303 307 311 316 318 328 287 261 259 269 281 285 274
233 230 229 225 224 226 226 224 226 225 228 227 221 222 223 228 235 238 240 244 245 248 252 256 258 262 268 272 279 281 288 300 302 305 313 313 323 320 277 263 266 277 276 278
231 230 226 225 223 224 226 226 227 226 228 228 222 223 222 224 231 235 238 243 246 244 248 252 254 261 264 270 273 277 285 297 295 301 306 315 322 324 306 269 260 264 272 270
228 227 226 224 224 222 223 225 226 225 223 220 217 219 219 224 230 233 236 241 242 244 248 248 253 258 262 267 269 276 285 289 291 298 306 312 318 314 316 297 268 260 263 260
226 223 221 223 221 223 225 227 222 224 221 221 218 214 216 221 226 229 232 233 239 241 242 243 247 254 258 261 267 275 284 283 288 295 300 309 308 314 313 310 273 257 257 257
220 221 221 220 220 221 221 223 220 223 222 221 216 214 215 218 223 224 226 228 234 235 236 242 249 252 257 262 268 275 280 278 286 291 298 305 305 307 312 313 299 261 254 255
217 218 219 219 216 217 219 220 216 216 216 217 214 214 214 216 223 222 226 229 231 235 236 241 248 252 256 264 270 273 275 277 282 287 292 297 297 303 309 314 308 279 260 259
213 215 216 215 213 217 217 215 213 212 212 212 214 212 214 215 222 224 228 231 233 238 240 245 251 256 261 263 271 275 272 274 280 282 286 293 293 299 305 308 308 292 277 265
210 212 213 213 210 215 214 210 208 210 207 209 211 212 212 215 222 222 225 229 232 236 239 244 250 254 258 262 264 267 267 272 277 279 284 288 288 295 301 304 308 301 282 268
206 209 209 210 210 209 208 204 204 205 204 205 208 209 211 214 221 223 226 229 231 234 239 243 247 250 254 256 260 262 263 265 270 273 278 284 289 289 298 301 305 306 286 272
202 203 204 207 205 201 198 197 200 199 198 202 206 209 211 214 218 218 223 227 230 233 236 240 244 248 251 254 253 254 256 259 265 273 277 283 280 288 294 295 301 305 297 284
197 196 201 199 195 192 192 195 195 192 195 198 201 204 209 212 218 222 225 228 232 235 238 240 242 245 245 248 251 252 253 258 265 271 279 278 280 283 290 294 300 305 299 296
190 191 195 190 186 186 189 188 188 189 191 195 199 202 206 210 216 220 223 226 230 233 236 239 241 244 246 247 248 252 254 257 265 270 272 271 272 282 288 291 300 303 301 298
186 184 185 183 179 185 185 185 184 186 188 191 197 200 204 210 215 219 223 225 227 229 232 234 237 241 245 247 252 256 251 255 262 265 265 269 273 279 286 290 295 298 302 299
177 176 175 179 180 184 186 187 185 183 186 190 195 198 202 206 213 218 221 222 224 226 230 235 238 241 246 250 250 249 252 257 259 260 265 271 273 278 280 287 292 297 296 288
170 170 173 176 178 181 184 182 183 182 185 189 193 198 202 206 211 214 218 221 224 226 230 233 239 243 244 242 245 249 253 252 258 262 267 274 274 275 284 292 291 291 288 288
168 170 172 173 176 176 175 178 178 181 184 189 193 196 200 204 210 214 218 221 224 226 227 230 235 235 236 240 244 248 247 250 256 257 263 267 272 280 287 288 285 291 291 289
167 169 171 172 171 174 176 177 178 180 184 189 191 194 199 204 208 212 218 222 224 226 226 228 229 232 239 244 247 250 255 257 258 261 264 267 274 281 288 292 289 292 295 294
164 164 166 170 172 172 173 175 176 179 184 184 189 194 200 203 209 212 216 219 221 221 223 226 229 234 239 246 247 250 257 261 264 265 272 276 279 281 285 289 292 291 294 295
163 164 164 168 170 170 170 172 174 173 175 180 187 191 198 202 207 212 216 219 218 220 224 230 232 234 240 246 253 257 260 261 264 275 278 281 284 287 290 293 292 293 296 295
165 162 163 164 163 165 167 170 173 175 177 180 186 191 191 199 206 211 215 219 218 223 227 230 234 240 245 248 251 256 260 260 267 273 275 280 283 285 286 285 286 288 288 288
157 159 160 158 159 162 165 169 172 173 174 177 180 184 186 189 198 214 218 221 222 227 228 232 235 239 245 250 256 260 260 263 264 268 270 273 279 281 282 282 282 282 283 285
148 151 154 160 159 162 166 168 171 175 177 179 180 179 174 189 201 209 226 223 226 231 235 236 239 243 247 251 254 258 260 263 267 268 273 276 278 279 280 281 282 283 283 284
153 156 157 160 162 163 166 172 177 181 186 185 185 185 180 189 196 211 219 225 228 231 235 240 243 247 251 254 256 258 263 269 269 270 272 274 279 279 282 282 284 285 285 285
159 162 164 167 166 169 174 177 185 188 192 193 193 195 197 201 211 216 221 230 239 244 246 246 247 249 253 256 257 262 268 268 269 268 269 274 277 278 281 283 285 285 286 288
165 168 175 177 177 182 188 189 194 196 199 201 201 204 210 214 219 228 234 239 242 245 248 251 252 253 255 256 261 264 267 267 268 269 272 274 274 275 278 280 282 285 287 289
Height
10243 10262 10279 10296 10311 10328 10342 10362 10387 10409 10401 10414 10462 10495 10513 10520 10521 10532 10544 10554 10559 10564 10571 10577 10580 10582 10584 10587 10587 10587 10586 10585 10585 10584 10581 10577 10576 10573 10573 10572 10573 10577 10576 10570
10219 10236 10253 10271 10286 10301 10321 10341 10365 10375 10369 10398 10457 10480 10493 10502 10505 10521 10532 10541 10548 10553 10560 10567 10570 10572 10573 10578 10578 10579 10579 10579 10577 10576 10576 10573 10570 10568 10567 10566 10566 10568 10570 10564
10197 10212 10230 10248 10262 10277 10293 10315 10322 10336 10358 10410 10433 10456 10478 10490 10492 10506 10518 10528 10536 10542 10549 10555 10559 10561 10564 10567 10569 10570 10571 10573 10571 10570 10569 10568 10564 10562 10560 10560 10560 10561 10561 10560
10176 10192 10208 10225 10237 10252 10266 10282 10295 10331 10362 10393 10428 10445 10465 10473 10480 10494 10505 10513 10523 10530 10536 10543 10547 10549 10553 10556 10560 10562 10563 10565 10564 10562 10561 10560 10558 10554 10553 10551 10551 10553 10552 10553
10158 10174 10189 10203 10215 10224 10235 10260 10289 10318 10355 10378 10396 10422 10450 10465 10467 10482 10497 10505 10510 10517 10526 10530 10533 10535 10541 10546 10549 10552 10554 10556 10554 10554 10553 10553 10551 10546 10547 10544 10543 10543 10544 10542
10141 10156 10169 10179 10189 10207 10238 10253 10284 10305 10337 10353 10376 10416 10435 10449 10450 10471 10483 10490 10491 10506 10513 10513 10515 10524 10531 10535 10540 10543 10546 10545 10544 10545 10545 10545 10542 10540 10540 10538 10534 10534 10535 10532
10127 10140 10153 10162 10184 10208 10221 10233 10271 10297 10322 10338 10378 10394 10416 10431 10440 10451 10462 10467 10480 10491 10489 10496 10507 10514 10521 10527 10531 10534 10535 10535 10535 10535 10535 10537 10531 10530 10530 10530 10526 10525 10525 10522
10115 10127 10140 10154 10173 10187 10203 10223 10252 10276 10300 10324 10352 10377 10400 10411 10415 10436 10442 10456 10464 10466 10477 10489 10497 10506 10513 10518 10521 10523 10524 10523 10525 10526 10526 10528 10521 10519 10520 10520 10517 10513 10511 10512
10104 10115 10127 10142 10164 10172 10187 10214 10239 10260 10279 10311 10337 10359 10381 10401 10406 10418 10437 10444 10451 10460 10470 10481 10491 10498 10505 10509 10510 10511 10512 10513 10514 10518 10518 10518 10510 10510 10511 10511 10509 10502 10502 10502
10095 10106 10119 10137 10153 10161 10180 10205 10228 10247 10271 10292 10313 10347 10372 10384 10385 10411 10416 10426 10436 10447 10461 10472 10481 10488 10493 10498 10501 10499 10500 10501 10504 10505 10508 10508 10501 10500 10498 10500 10500 10493 10490 10489
10087 10100 10115 10129 10142 10156 10178 10198 10217 10234 10259 10284 10306 10327 10355 10369 10374 10399 10407 10402 10424 10441 10452 10464 10470 10477 10480 10486 10490 10490 10490 10489 10493 10495 10498 10498 10491 10490 10490 10487 10485 10483 10479 10476
10083 10097 10110 10123 10138 10156 10173 10189 10203 10225 10250 10275 10294 10322 10343 10361 10360 10364 10377 10399 10411 10427 10437 10451 10456 10463 10467 10473 10477 10477 10479 10477 10479 10484 10487 10486 10481 10477 10477 10476 10474 10471 10467 10464
10081 10095 10106 10121 10135 10152 10165 10179 10198 10220 10239 10258 10283 10308 10324 10337 10347 10360 10374 10393 10406 10419 10428 10434 10439 10445 10452 10459 10463 10465 10468 10467 10470 10471 10474 10471 10469 10466 10465 10463 10461 10458 10455 10452
10081 10093 10105 10118 10133 10146 10159 10176 10194 10213 10235 10255 10272 10292 10309 10322 10335 10351 10368 10379 10394 10404 10413 10419 10428 10435 10439 10445 10449 10454 10458 10458 10459 10462 10462 10455 10455 10455 10454 10450 10447 10445 10441 10438
10081 10094 10104 10117 10131 10141 10153 10167 10182 10199 10219 10243 10261 10283 10299 10315 10328 10344 10357 10371 10384 10394 10402 10410 10416 10422 10427 10433 10439 10448 10447 10446 10446 10449 10444 10443 10443 10444 10441 10438 10436 10433 10429 10426
10081 10094 10106 10115 10127 10139 10151 10163 10179 10200 10219 10236 10250 10273 10289 10306 10319 10334 10347 10361 10373 10384 10392 10400 10405 10413 10418 10423 10433 10432 10432 10432 10433 10434 10431 10429 10431 10431 10429 10426 10423 10420 10417 10415
10084 10094 10104 10114 10127 10142 10159 10180 10192 10205 10221 10235 10252 10267 10285 10299 10312 10328 10342 10354 10365 10375 10382 10390 10396 10402 10405 10413 10420 10419 10420 10419 10417 10417 10418 10419 10417 10415 10415 10414 10408 10405 10403 10400
10085 10095 10104 10116 10126 10137 10154 10168 10183 10200 10215 10230 10243 10263 10280 10295 10308 10323 10334 10346 10356 10364 10373 10381 10387 10390 10395 10401 10405 10404 10403 10403 10404 10406 10406 10406 10403 10402 10402 10399 10395 10391 10389 10384
10088 10096 10107 10118 10130 10143 10155 10170 10183 10197 10219 10234 10248 10263 10278 10291 10304 10316 10327 10338 10345 10355 10365 10370 10373 10381 10390 10391 10388 10387 10389 10395 10394 10393 10394 10393 10391 10389 10387 10383 10380 10377 10373 10369
10097 10107 10117 10125 10134 10146 10162 10178 10193 10203 10217 10236 10253 10270 10279 10290 10300 10311 10320 10328 10337 10345 10353 10357 10366 10377 10377 10374 10373 10373 10376 10378 10380 10380 10381 10380 10377 10374 10370 10366 10363 10361 10354 10348
10101 10111 10122 10132 10142 10155 10170 10185 10201 10215 10228 10238 10250 10263 10275 10288 10299 10308 10316 10323 10330 10337 10344 10349 10357 10363 10361 10360 10360 10362 10363 10365 10367 10365 10363 10360 10356 10353 10349 10346 10343 10337 10332 10327
10114 10123 10134 10146 10157 10169 10180 10193 10205 10218 10227 10239 10253 10264 10275 10284 10294 10302 10310 10316 10321 10326 10331 10338 10349 10348 10346 10347 10348 10351 10353 10354 10353 10352 10349 10345 10341 10337 10333 10329 10325 10321 10316 10311
10128 10135 10147 10160 10175 10185 10194 10204 10215 10225 10236 10245 10254 10265 10273 10284 10290 10297 10300 10305 10312 10312 10322 10331 10330 10329 10332 10336 10338 10339 10340 10339 10337 10335 10333 10331 10327 10323 10319 10314 10311 10303 10297 10292
10140 10150 10160 10170 10179 10191 10202 10210 10218 10225 10233 10242 10252 10261 10270 10276 10281 10286 10290 10296 10302 10309 10313 10315 10318 10322 10323 10323 10324 10325 10323 10322 10321 10319 10317 10314 10311 10306 10301 10296 10291 10287 10283 10277
10154 10161 10169 10180 10189 10197 10205 10212 10219 10226 10234 10243 10250 10256 10261 10266 10270 10277 10281 10286 10293 10299 10303 10305 10309 10312 10312 10312 10311 10311 10310 10309 10307 10304 10302 10298 10294 10289 10284 10279 10275 10270 10265 10259
10165 10173 10180 10185 10193 10202 10207 10213 10221 10228 10235 10244 10251 10256 10260 10264 10269 10272 10276 10281 10286 10291 10294 10297 10297 10298 10300 10300 10299 10297 10295 10292 10289 10286 10283 10279 10275 10271 10267 10262 10257 10252 10246 10241
10174 10179 10185 10190 10196 10202 10208 10215 10221 10230 10236 10242 10248 10254 10258 10262 10267 10269 10272 10275 10279 10281 10282 10284 10285 10285 10285 10285 10285 10284 10280 10275 10271 10268 10264 10261 10257 10252 10248 10243 10238 10233 10227 10220